2025-140A

Last updated on Thu Jul 03 2025 00:02:09 GMT+0000 (Coordinated Universal Time)

1 64691U 25140A 25183.54148708 .00000847 00000+0 14061-3 0 9997 2 64691 95.9839 30.8760 0011668 297.1091 62.8931 14.71640610 623
UTC large
Height (km)
Speed (km/s)
/
Latitude / Longitude
Inclination (degrees)
Orbital Period (minutes)
Azimuth
Elevation
Range (km)
Doppler Factor

Next 0 passes for location: London (51.5072 / 0.1276)

Sorry there are no passes over London.